Temp
71 72 74 74 74 75 76 77 77 76 75 74 72 74 75 75 78 76 75 75 75 74 75 75 74 73 76 73 72 72 72 72 71 71 72 72 71 72 73 73 70 69
71 72 72 75 73 75 76 77 77 78 76 75 74 75 76 77 76 77 77 77 75 76 75 74 75 75 74 74 72 71 71 71 72 77 70 71 70 71 70 70 69 69
72 71 73 74 73 74 76 77 77 76 75 78 76 75 77 78 77 77 76 76 77 76 75 75 75 74 75 75 73 71 72 71 71 73 71 73 73 70 70 70 69 71
71 72 74 77 75 75 75 76 76 76 75 74 75 78 77 79 76 77 76 77 75 75 75 75 75 75 76 76 74 72 73 73 73 72 71 71 72 72 70 71 71 70
70 71 72 74 74 75 75 76 76 76 76 76 75 75 75 74 75 76 75 75 75 74 73 74 75 75 75 74 75 72 72 71 73 72 71 70 71 71 72 71 70 70
70 71 73 74 73 72 75 76 77 76 73 69 71 72 72 75 75 75 75 75 73 72 72 74 75 75 75 75 73 72 72 72 72 72 73 72 72 72 74 73 70 70
68 68 69 71 69 70 74 75 73 72 70 69 69 71 72 72 72 71 72 73 74 72 72 72 72 72 73 73 73 72 72 72 74 75 74 73 71 71 74 74 73 72
67 68 69 69 68 70 72 73 70 71 70 68 68 71 72 72 73 73 72 71 72 73 72 71 71 72 72 72 71 70 70 74 73 74 72 72 70 69 70 73 71 71
68 67 67 67 67 67 68 69 70 70 71 70 70 69 71 70 69 71 70 72 72 71 70 71 71 72 71 70 69 69 70 71 72 71 69 68 67 68 70 72 70 69
67 67 67 67 67 67 70 68 70 70 71 69 69 70 69 70 70 70 70 70 71 71 72 71 71 70 70 71 70 69 69 69 69 67 67 68 69 67 66 67 65 65
67 66 66 67 67 66 67 69 69 68 68 69 68 68 69 71 71 72 72 71 69 69 70 70 71 71 70 69 68 68 68 67 67 67 67 66 65 66 67 67 66 66
65 66 67 67 66 66 66 67 67 69 70 68 70 69 70 71 70 71 72 69 70 69 69 70 70 68 68 68 68 67 67 67 66 66 65 65 65 66 67 67 65 66
66 66 67 67 67 67 67 68 69 71 70 68 67 68 68 68 69 70 70 68 68 69 70 69 67 65 64 63 64 66 66 68 66 65 65 65 65 64 66 67 66 66
67 68 67 68 68 69 68 68 69 70 70 70 70 71 71 70 69 69 69 71 70 70 68 66 65 62 60 59 60 62 64 65 68 68 68 67 67 68 67 67 67 65
69 71 71 71 71 70 70 70 70 71 71 71 71 71 71 72 72 73 72 71 70 68 67 65 62 59 56 55 55 58 60 63 67 68 69 68 68 69 68 69 68 67
71 71 71 71 70 69 70 70 70 70 70 70 70 71 71 71 72 72 72 71 69 68 66 63 61 58 53 50 49 53 56 61 64 66 68 67 67 67 68 68 69 67
71 70 70 70 70 70 70 71 71 70 69 70 69 69 69 70 70 70 70 70 69 67 64 63 60 56 49 42 43 44 52 57 61 64 67 67 67 67 67 69 69 69
71 71 71 70 70 70 71 71 71 70 69 69 68 68 67 68 68 68 68 68 67 66 64 62 59 49 42 43 43 42 45 51 59 64 66 66 66 66 67 67 66 66
73 72 72 71 71 71 70 70 69 69 69 68 67 67 67 66 67 67 67 67 66 65 63 62 60 47 42 43 42 40 40 47 59 65 64 64 65 65 65 64 64 64
72 71 70 70 70 70 69 69 69 68 67 67 68 67 66 66 66 65 66 66 66 65 62 62 60 50 42 41 41 40 39 43 59 64 65 66 65 64 64 63 63 63
71 71 70 70 70 69 68 68 68 67 67 67 67 67 66 66 66 66 66 66 66 66 64 61 60 44 41 40 40 39 39 47 60 63 66 66 65 65 64 64 64 64
71 70 70 70 70 69 69 68 67 67 67 67 67 67 67 68 67 67 67 66 66 66 65 61 55 38 40 41 40 38 42 57 62 63 66 65 65 64 65 64 63 63
71 70 69 69 69 69 68 67 67 67 67 67 67 67 67 67 67 67 68 67 66 66 63 63 60 45 35 39 39 39 50 59 61 63 65 65 65 65 65 64 64 63
72 72 70 69 69 68 68 67 68 68 67 68 67 66 67 68 68 68 68 68 67 66 64 64 62 52 37 40 40 38 48 58 60 62 63 65 64 65 64 63 63 66
71 70 70 70 69 68 68 68 68 67 68 68 67 68 68 68 68 67 66 66 67 67 67 66 64 57 38 39 37 37 51 59 61 62 62 63 63 63 64 64 60 64
69 69 68 68 69 68 67 68 68 68 67 67 67 69 68 67 67 67 66 66 67 68 67 66 67 63 53 36 39 40 43 56 60 60 60 61 62 63 62 63 63 61
MSLP
1014.75 1014.87 1014.81 1014.61 1014.59 1014.49 1014.51 1014.69 1014.69 1014.91 1015.07 1015.33 1015.61 1015.69 1015.75 1015.63 1015.37 1015.53 1015.61 1015.83 1015.81 1015.87 1015.87 1015.89 1016.01 1016.13 1016.23 1016.27 1016.35 1016.41 1016.51 1016.49 1016.49 1016.57 1016.61 1016.65 1016.73 1016.75 1016.87 1016.87 1016.99 1017.09
1014.83 1014.89 1014.87 1014.59 1014.57 1014.51 1014.49 1014.47 1014.63 1014.71 1014.97 1015.13 1015.31 1015.43 1015.35 1015.33 1015.35 1015.31 1015.41 1015.61 1015.75 1015.69 1015.71 1015.85 1015.87 1015.97 1016.11 1016.05 1016.25 1016.41 1016.49 1016.45 1016.51 1016.21 1016.51 1016.57 1016.61 1016.57 1016.71 1016.71 1016.79 1016.77
1014.87 1015.01 1014.93 1014.81 1014.79 1014.77 1014.61 1014.53 1014.57 1014.69 1014.79 1014.95 1015.07 1015.17 1015.25 1015.15 1015.31 1015.29 1015.33 1015.41 1015.51 1015.53 1015.59 1015.61 1015.69 1015.79 1015.89 1015.87 1016.01 1016.27 1016.37 1016.41 1016.43 1016.27 1016.37 1016.57 1016.55 1016.63 1016.59 1016.57 1016.65 1016.65
1014.97 1015.05 1014.91 1014.61 1014.67 1014.79 1014.71 1014.65 1014.75 1014.81 1014.89 1015.11 1015.25 1015.19 1015.21 1015.21 1015.37 1015.51 1015.51 1015.49 1015.59 1015.65 1015.65 1015.61 1015.63 1015.63 1015.67 1015.63 1015.77 1016.05 1016.11 1016.19 1016.17 1016.19 1016.39 1016.35 1016.35 1016.39 1016.49 1016.45 1016.55 1016.59
1015.07 1015.07 1014.91 1014.75 1014.71 1014.73 1014.67 1014.81 1014.87 1014.99 1015.19 1015.25 1015.35 1015.43 1015.47 1015.55 1015.61 1015.61 1015.65 1015.69 1015.75 1015.83 1015.81 1015.79 1015.59 1015.59 1015.57 1015.63 1015.67 1015.95 1016.05 1016.19 1016.11 1016.17 1016.35 1016.49 1016.39 1016.47 1016.47 1016.49 1016.55 1016.61
1015.07 1014.99 1014.89 1014.89 1014.99 1015.33 1014.69 1014.73 1014.83 1015.05 1015.49 1016.07 1015.95 1015.63 1015.65 1015.59 1015.61 1015.65 1015.73 1015.87 1015.97 1016.17 1016.21 1015.87 1015.77 1015.69 1015.63 1015.63 1015.63 1015.79 1015.97 1016.13 1016.17 1016.21 1016.31 1016.39 1016.35 1016.25 1016.33 1016.35 1016.41 1016.53
1015.27 1015.39 1015.21 1015.05 1015.61 1015.63 1014.75 1014.79 1015.07 1015.61 1016.11 1016.25 1015.99 1015.93 1015.73 1015.87 1015.85 1015.85 1015.91 1015.89 1015.95 1016.09 1016.17 1016.11 1016.09 1015.99 1015.85 1015.71 1015.67 1015.81 1015.85 1015.95 1016.01 1016.09 1016.25 1016.23 1016.25 1016.29 1016.19 1016.25 1016.25 1016.25
1015.51 1015.59 1015.51 1015.65 1016.21 1015.47 1015.31 1015.31 1015.55 1015.75 1015.95 1016.23 1016.41 1015.89 1015.81 1015.93 1015.79 1015.77 1015.87 1015.95 1016.03 1015.97 1016.07 1016.19 1016.17 1015.99 1015.93 1015.87 1016.01 1016.15 1016.15 1015.99 1016.05 1016.11 1016.29 1016.39 1016.55 1016.61 1016.45 1016.35 1016.27 1016.33
1015.23 1015.49 1015.85 1016.53 1016.47 1015.95 1015.97 1015.63 1015.59 1015.65 1015.57 1016.01 1015.91 1015.95 1015.83 1016.17 1016.17 1016.05 1016.25 1015.95 1015.91 1015.89 1015.95 1016.01 1016.07 1016.07 1016.03 1016.07 1016.11 1016.23 1016.39 1016.39 1016.27 1016.33 1016.47 1016.69 1016.91 1016.85 1016.77 1016.47 1016.37 1016.35
1015.47 1015.49 1016.17 1016.77 1016.87 1016.25 1015.97 1016.01 1015.79 1015.75 1015.79 1016.15 1016.05 1015.99 1016.15 1016.05 1016.07 1016.15 1016.11 1016.05 1015.93 1015.97 1015.93 1016.03 1016.03 1016.03 1016.09 1016.09 1016.33 1016.57 1016.65 1016.65 1016.59 1016.57 1016.65 1016.65 1016.59 1016.71 1016.81 1016.85 1017.01 1017.09
1016.17 1016.35 1016.47 1016.61 1016.43 1016.25 1016.21 1015.99 1015.93 1016.23 1016.19 1016.33 1016.49 1016.31 1016.15 1015.95 1015.97 1015.83 1015.85 1016.05 1016.21 1016.25 1016.23 1016.19 1016.11 1016.07 1016.21 1016.35 1016.41 1016.57 1016.71 1016.95 1016.85 1016.79 1016.81 1016.73 1016.73 1016.79 1016.81 1016.87 1016.93 1016.89
1016.41 1016.35 1016.35 1016.49 1016.59 1016.59 1016.33 1016.05 1016.07 1016.01 1016.07 1016.29 1016.29 1016.41 1016.15 1015.97 1015.99 1015.97 1015.89 1016.43 1016.47 1016.39 1016.39 1016.37 1016.39 1016.57 1016.73 1016.81 1016.83 1016.81 1016.69 1016.75 1016.77 1016.75 1016.75 1016.77 1016.91 1016.95 1016.71 1016.59 1016.83 1016.79
1016.33 1016.25 1016.17 1016.33 1016.41 1016.41 1016.41 1016.27 1016.19 1016.07 1016.13 1016.53 1016.57 1016.45 1016.27 1016.31 1016.23 1016.29 1016.35 1016.61 1016.55 1016.49 1016.47 1016.61 1016.83 1016.99 1017.13 1017.15 1017.05 1016.89 1016.81 1016.69 1016.63 1016.61 1016.59 1016.73 1017.05 1017.15 1016.87 1016.61 1016.65 1016.63
1015.97 1015.89 1016.19 1016.15 1016.05 1016.15 1016.31 1016.35 1016.21 1016.11 1016.13 1016.21 1016.33 1016.33 1016.25 1016.27 1016.33 1016.35 1016.35 1016.35 1016.51 1016.59 1016.79 1016.97 1017.19 1017.41 1017.57 1017.65 1017.59 1017.35 1017.15 1016.95 1016.59 1016.45 1016.41 1016.41 1016.41 1016.43 1016.53 1016.55 1016.53 1016.57
1015.93 1015.83 1015.89 1016.01 1016.11 1016.07 1016.15 1016.23 1016.21 1016.23 1016.25 1016.27 1016.33 1016.39 1016.29 1016.23 1016.13 1016.05 1016.15 1016.29 1016.51 1016.71 1016.97 1017.19 1017.41 1017.75 1018.07 1018.21 1018.13 1017.79 1017.53 1017.09 1016.75 1016.51 1016.29 1016.25 1016.27 1016.27 1016.29 1016.31 1016.39 1016.41
1015.97 1016.03 1016.09 1016.17 1016.33 1016.45 1016.43 1016.41 1016.47 1016.47 1016.49 1016.55 1016.59 1016.53 1016.51 1016.47 1016.31 1016.27 1016.33 1016.43 1016.67 1016.99 1017.25 1017.49 1017.71 1018.05 1018.43 1018.49 1018.45 1018.37 1018.01 1017.41 1016.99 1016.65 1016.39 1016.25 1016.23 1016.27 1016.25 1016.19 1016.19 1016.45
1016.17 1016.29 1016.29 1016.41 1016.43 1016.45 1016.47 1016.55 1016.65 1016.69 1016.75 1016.85 1016.93 1016.95 1016.95 1016.83 1016.75 1016.77 1016.77 1016.81 1016.99 1017.27 1017.57 1017.73 1018.01 1018.39 1018.71 1018.69 1018.57 1018.59 1018.31 1017.73 1017.25 1016.81 1016.45 1016.25 1016.27 1016.37 1016.41 1016.21 1016.19 1016.25
1016.09 1016.19 1016.37 1016.47 1016.55 1016.63 1016.63 1016.65 1016.71 1016.85 1017.07 1017.21 1017.29 1017.33 1017.27 1017.17 1017.13 1017.07 1017.03 1017.05 1017.25 1017.49 1017.71 1017.87 1018.09 1018.69 1018.83 1018.73 1018.59 1018.47 1018.49 1018.17 1017.47 1016.89 1016.61 1016.61 1016.57 1016.57 1016.49 1016.49 1016.57 1016.55
1015.97 1016.19 1016.33 1016.49 1016.61 1016.69 1016.79 1016.89 1017.05 1017.17 1017.29 1017.37 1017.49 1017.43 1017.41 1017.43 1017.39 1017.29 1017.27 1017.23 1017.39 1017.69 1017.91 1018.03 1018.17 1018.47 1018.49 1018.49 1018.43 1018.37 1018.27 1018.07 1017.61 1016.95 1016.95 1016.93 1016.91 1016.87 1016.91 1016.91 1016.85 1016.81
1016.43 1016.57 1016.77 1016.87 1016.91 1017.01 1017.11 1017.23 1017.31 1017.39 1017.35 1017.33 1017.31 1017.31 1017.37 1017.37 1017.37 1017.43 1017.37 1017.37 1017.39 1017.59 1017.93 1018.09 1018.23 1018.39 1018.39 1018.39 1018.39 1018.29 1018.13 1017.97 1017.61 1017.23 1016.97 1016.93 1017.03 1017.11 1017.11 1017.07 1017.07 1017.05
1016.83 1016.91 1017.05 1017.09 1017.11 1017.19 1017.29 1017.33 1017.37 1017.37 1017.35 1017.31 1017.29 1017.31 1017.31 1017.33 1017.33 1017.35 1017.37 1017.39 1017.41 1017.41 1017.71 1018.09 1018.21 1018.45 1018.35 1018.37 1018.41 1018.33 1018.21 1017.89 1017.55 1017.29 1016.89 1016.87 1016.93 1017.03 1017.11 1017.03 1017.09 1017.13
1016.95 1017.07 1017.09 1017.15 1017.23 1017.29 1017.37 1017.45 1017.47 1017.45 1017.39 1017.19 1017.15 1017.13 1017.07 1016.99 1017.07 1017.09 1017.21 1017.35 1017.35 1017.45 1017.59 1017.99 1018.19 1018.37 1018.21 1018.17 1018.21 1018.25 1018.13 1017.77 1017.45 1017.21 1016.81 1016.75 1016.87 1017.01 1017.01 1017.05 1017.11 1017.15
1017.09 1017.25 1017.35 1017.31 1017.35 1017.45 1017.55 1017.55 1017.55 1017.53 1017.47 1017.27 1017.27 1017.15 1017.07 1017.07 1016.95 1016.95 1017.01 1017.15 1017.31 1017.45 1017.63 1017.73 1017.97 1018.11 1018.09 1017.95 1017.99 1018.03 1017.79 1017.69 1017.45 1017.19 1016.85 1016.63 1016.75 1016.79 1016.81 1016.85 1016.97 1016.99
1017.21 1017.23 1017.41 1017.51 1017.63 1017.73 1017.67 1017.61 1017.47 1017.45 1017.51 1017.31 1017.39 1017.29 1017.09 1017.01 1017.01 1017.01 1017.07 1017.07 1017.15 1017.37 1017.49 1017.61 1017.71 1017.71 1017.79 1017.73 1017.73 1017.83 1017.73 1017.63 1017.49 1017.29 1017.03 1016.75 1016.71 1016.59 1016.61 1016.67 1016.75 1016.65
1017.65 1017.65 1017.65 1017.63 1017.73 1017.77 1017.67 1017.63 1017.53 1017.57 1017.51 1017.43 1017.41 1017.23 1017.17 1017.23 1017.29 1017.33 1017.35 1017.21 1017.15 1017.15 1017.25 1017.25 1017.27 1017.35 1017.59 1017.55 1017.69 1017.77 1017.67 1017.55 1017.43 1017.35 1017.27 1017.07 1016.91 1016.77 1016.55 1016.53 1016.63 1016.45
1017.97 1018.03 1017.99 1017.95 1017.97 1017.89 1017.81 1017.71 1017.59 1017.61 1017.59 1017.57 1017.51 1017.41 1017.47 1017.49 1017.43 1017.39 1017.37 1017.23 1017.03 1016.95 1016.99 1016.91 1016.83 1016.99 1017.19 1017.37 1017.43 1017.65 1017.79 1017.73 1017.61 1017.53 1017.51 1017.37 1017.25 1017.19 1017.05 1016.73 1016.61 1016.73
Wind_Speed
1 2 5 3 2 3 2 4 2 5 4 6 5 4 5 5 3 7 3 6 4 3 2 1 4 4 1 4 3 1 3 2 3 0 3 2 3 2 3 2 1 2
1 4 5 2 1 2 1 1 2 3 4 4 6 5 3 4 4 3 4 7 8 6 5 4 3 4 5 2 6 2 2 3 3 4 5 5 3 2 4 5 6 5
3 4 6 3 3 3 3 2 2 1 1 5 4 3 3 2 2 1 3 1 0 1 2 6 5 4 5 4 4 6 4 3 3 2 3 0 0 2 4 5 4 2
4 5 6 5 2 4 3 3 1 1 1 0 1 1 0 0 2 1 0 2 2 2 2 3 1 4 4 3 3 4 3 2 2 3 4 3 2 3 3 2 1 3
4 5 5 5 2 4 4 4 3 2 2 1 1 1 1 2 0 2 3 2 1 2 2 4 3 3 3 3 3 2 3 4 3 2 2 3 3 3 3 3 4 4
4 4 4 5 1 8 5 4 4 3 5 7 6 4 2 2 1 1 1 1 2 3 6 4 3 2 3 3 3 3 2 3 3 4 4 4 4 4 5 5 4 4
2 4 3 4 3 10 1 1 5 4 8 2 4 3 2 0 1 3 4 3 2 3 2 3 4 3 4 4 2 2 4 3 3 4 6 5 3 4 3 5 5 4
4 3 4 4 3 7 1 1 5 2 6 9 7 4 2 3 2 3 1 1 2 2 1 2 4 3 4 2 3 5 5 4 3 6 3 5 1 2 3 6 5 5
2 2 1 7 4 4 3 3 2 3 1 1 1 1 2 1 4 3 3 0 2 1 2 1 2 2 1 2 2 3 5 5 5 4 2 2 1 2 4 6 5 3
2 1 4 4 3 3 3 2 4 3 2 3 1 1 2 4 3 1 2 1 1 1 0 1 3 3 2 4 4 5 4 5 4 3 5 5 4 2 5 5 6 8
2 3 3 1 1 1 3 2 1 2 3 1 4 3 3 2 2 2 1 5 6 6 5 4 3 3 5 4 3 3 3 3 5 4 4 5 6 5 4 4 6 7
2 4 1 3 4 1 4 2 3 3 3 6 4 3 2 4 2 4 6 7 5 5 5 5 8 8 8 7 6 5 5 2 2 2 2 4 7 6 4 2 4 5
4 4 4 4 3 5 4 3 2 2 5 6 5 6 5 4 3 4 5 4 3 4 7 8 8 8 7 7 7 7 6 4 1 1 2 3 4 6 5 3 2 2
6 3 5 2 1 3 5 4 5 6 7 6 5 4 4 3 1 3 4 7 7 7 8 7 7 7 7 7 6 6 5 5 5 3 1 2 2 1 3 2 0 1
6 5 6 7 7 7 8 7 7 6 7 6 6 6 5 6 5 5 5 8 8 8 8 7 6 6 5 6 6 6 6 5 5 5 5 3 4 3 3 3 2 1
9 7 8 8 9 8 7 7 7 7 7 6 6 5 6 6 6 7 7 7 8 9 8 6 5 4 6 8 5 5 6 5 5 5 5 4 2 3 3 2 1 4
8 7 7 8 6 5 5 7 7 5 5 5 6 7 6 5 5 7 6 7 8 8 6 5 3 3 7 7 7 7 5 5 5 4 4 3 3 5 5 4 4 3
6 7 7 6 6 6 6 5 5 6 7 7 6 6 5 5 5 5 5 5 6 7 5 4 4 5 7 7 8 8 7 6 5 5 4 5 4 4 4 5 5 4
7 8 8 7 7 7 6 7 7 7 6 5 5 4 4 4 5 4 4 4 5 6 5 5 4 4 7 8 8 9 8 8 5 5 4 3 4 5 6 5 5 4
10 10 10 10 9 8 7 7 6 6 4 4 3 3 3 3 4 4 4 4 3 5 5 4 3 3 5 8 8 10 9 9 6 6 2 2 3 4 3 3 4 4
9 9 8 8 8 7 6 6 5 4 4 3 3 3 3 3 3 3 3 3 4 3 5 4 2 2 2 4 6 8 10 8 5 6 2 2 2 2 4 3 3 4
8 8 7 7 7 6 6 6 5 5 5 2 3 3 2 2 2 2 2 3 3 4 4 5 2 3 1 2 2 4 8 5 5 7 2 3 2 3 1 1 2 3
8 8 7 7 7 6 6 5 4 4 4 4 4 2 2 2 2 1 2 2 3 3 4 2 3 3 3 2 3 3 5 4 5 6 5 1 0 2 1 2 2 1
8 8 7 7 6 7 5 3 3 3 4 4 4 5 2 2 4 4 4 4 2 3 4 2 2 5 5 2 1 2 1 2 4 5 7 3 3 1 2 2 4 8
8 8 8 7 6 5 4 4 4 4 4 4 4 5 4 6 6 5 4 3 3 1 7 2 3 5 6 5 2 1 2 2 2 3 5 6 6 6 3 2 4 7
6 6 6 7 8 7 7 6 5 4 4 3 4 4 5 4 3 3 3 3 3 1 2 5 2 4 8 7 5 3 1 2 4 4 5 5 5 6 6 8 2 3
Wind_Direction
162 283 272 211 231 211 177 179 199 155 164 151 161 177 193 203 220 186 187 159 186 170 181 104 168 146 169 209 199 169 290 283 163 321 300 263 236 293 297 257 212 225
227 253 271 255 79 294 183 225 207 178 165 143 157 184 219 165 224 209 177 153 179 191 167 188 184 166 195 210 164 175 214 264 211 207 195 234 250 216 237 265 277 272
215 251 260 219 188 226 220 215 183 250 83 153 174 181 182 206 137 0 34 359 327 19 162 184 171 182 197 208 164 174 197 227 271 317 321 244 62 226 225 205 190 244
233 257 267 228 191 220 259 176 160 144 78 51 162 128 333 17 108 180 335 300 340 309 321 328 267 180 231 226 184 181 200 240 232 195 209 259 283 331 324 345 237 233
226 249 257 269 160 260 186 214 177 153 184 142 76 313 123 269 100 231 191 190 220 331 318 284 264 260 215 239 233 166 195 213 235 248 227 219 217 219 266 274 270 278
227 252 270 279 134 239 194 193 190 152 47 30 337 19 7 342 306 311 288 274 22 342 308 271 286 312 304 271 239 240 234 190 219 241 245 242 227 198 218 235 223 228
275 270 267 282 266 252 79 34 84 48 81 29 334 299 329 104 312 356 343 310 183 211 246 310 308 288 285 276 269 227 227 240 263 271 264 262 273 270 267 272 267 236
259 270 343 314 332 335 25 353 49 96 119 147 223 257 301 272 233 221 161 268 311 273 339 26 309 272 281 314 28 7 342 322 272 253 294 302 348 19 317 292 286 297
21 75 323 283 10 308 327 348 28 357 7 225 136 177 282 327 285 298 265 329 296 25 301 314 314 309 3 36 358 347 315 302 310 326 326 18 348 299 296 283 295 306
335 297 268 150 210 255 307 22 0 332 357 9 336 299 204 224 314 238 187 168 277 250 324 6 21 31 5 8 358 317 315 332 339 10 340 315 323 351 285 325 345 327
162 328 319 204 96 318 303 320 135 296 347 105 109 56 360 36 78 46 35 62 40 22 23 4 3 14 21 8 338 328 329 343 341 342 6 347 328 323 311 271 255 249
113 217 242 59 116 45 354 15 323 329 62 19 41 72 36 32 14 27 25 57 48 52 38 35 43 42 38 26 29 18 20 0 313 348 343 356 333 329 292 317 338 312
127 114 129 127 134 150 179 118 106 89 83 94 38 33 55 36 27 34 59 68 79 66 51 51 46 37 31 21 10 10 345 339 279 231 249 204 195 225 292 302 259 288
97 103 89 121 191 105 112 105 74 58 68 84 108 96 98 106 88 108 89 84 82 74 64 52 48 42 29 15 5 352 346 329 332 307 276 243 265 249 224 253 178 351
83 67 72 70 66 60 59 64 65 63 63 59 58 60 43 48 73 69 94 95 78 69 66 54 42 41 31 14 355 348 339 323 321 323 314 9 359 358 339 331 324 46
66 58 60 64 67 65 66 65 61 58 54 49 35 37 45 29 28 42 35 52 68 67 65 53 42 46 20 9 347 343 328 320 318 321 339 337 353 340 339 306 285 96
75 68 64 62 59 68 70 72 70 69 65 62 54 46 41 44 40 50 52 56 67 67 64 58 51 32 3 346 348 352 339 329 321 313 310 331 10 4 339 0 23 61
93 93 86 80 74 67 67 70 73 69 65 59 58 55 46 44 48 52 58 68 72 74 64 54 56 36 2 353 347 356 359 332 310 308 0 4 5 347 340 12 14 354
102 99 96 96 90 81 68 57 56 62 69 81 77 77 80 63 59 61 57 66 89 84 76 57 49 32 9 360 350 354 352 346 320 334 14 358 358 4 8 5 355 354
57 55 55 53 54 58 59 59 62 59 58 54 65 75 75 80 84 64 49 50 66 107 98 85 63 32 11 360 353 350 345 350 316 317 324 352 37 11 345 0 2 348
66 65 65 65 65 65 63 60 58 69 67 62 68 56 55 67 45 81 79 61 39 37 111 101 94 92 40 2 356 350 339 330 305 294 307 48 67 53 357 4 31 8
67 66 69 74 69 60 60 61 51 33 21 33 60 50 40 37 97 83 74 72 59 55 38 113 107 194 105 82 9 354 334 318 319 310 300 92 78 61 338 65 36 4
70 67 56 53 55 60 52 41 45 42 35 355 14 349 75 353 348 115 96 111 88 77 53 75 132 199 215 108 83 28 360 349 331 329 309 88 95 123 237 129 111 170
44 56 65 64 52 42 42 42 49 58 28 355 2 319 317 57 28 9 44 2 74 105 122 51 128 192 200 181 159 105 356 333 331 329 334 18 347 217 188 166 177 204
40 31 26 39 50 46 25 25 27 39 23 11 347 330 20 33 16 6 9 349 12 41 140 168 175 191 204 201 189 111 5 337 333 340 340 343 349 339 321 174 193 222
42 35 30 26 27 22 13 8 17 24 357 12 338 352 24 10 4 332 328 323 291 272 194 205 212 171 189 199 181 167 103 340 331 344 344 352 357 347 337 336 306 218